sat.trackr.live / text

‹ back to catalog

QIANFAN-52

NORAD 62253 · 2024-232S

PAYLOAD ACTIVE UNKNOWN

§ Identity

Operator
Country
PRC
Launch date
2024-12-05
Launch site
TAISC
Launch vehicle
Mass (kg)
RCS (m²)

External: N2YO · Heavens-Above · Gunter

§ Orbital elements

Epoch: 2026-05-25T02:42:44.563392Z

Period
106.59 min
Inclination
89.0096°
Eccentricity
0.0017371
Mean motion
13.51006762 rev/d
Perigee alt
1,055.6 km
Apogee alt
1,081.5 km
Semi-major
7,446.7 km
B*
1.4731e-4
RAAN
24.6843°
Arg perigee
80.3073°
Mean anomaly
280.0039°
Rev number
9,000

§ Raw data

QIANFAN-521 62253U 24232S   26145.11301578  .00000107  00000+0  14731-3 0  99912 62253  89.0096  24.6843 0017371  80.3073 280.0039 13.51006762 90001

JSON: /api/v1/satellites/62253 · /tle

For live sub-satellite position, see the globe view (requires WebGL).

§ Visibility from observer

Set your observer location to see the next 7 days of passes ≥ 10°. The values pass through the URL so the page stays shareable.

No JS? Fill the form by hand. The geolocation button needs JavaScript.